DELTA 1 DEB, 9570

Orbit data source: Space-Track

DELTA 1 DEB, 9570 is space debris in SSO originally from a launch on Tue, 06 Nov 1973 UTC launched from the Air Force Western Test Range (AFWTR). Debris objects in space refer to the collection of defunct objects orbiting the Earth. Examples of debris include non-operational satellites, rocket bodies, and fragments generated from explosions, collisions, or faulty payload assembly.

Loading next visibility...
Identifier
9570, 1973-086FX
Orbit
SSO
Country
Flag of USUS
Related business
Manufacturer
Unknown
Mission
Spacecraft
Bus & Motor
Unknown
Mass
Unknown
Launch date (UTC)
1973-11-06 (52 years ago)
Launch vehicle
Unknown
Launch site
Air Force Western Test Range (AFWTR)
Object type
Payload
Rocket body
Debris
Shape & HBR
Unknown shape, 0.1 m
Radar Cross Section
Small (<0.1 m²)

Expand to show TLE details & history
Last TLE update: 16 hours ago

TLE from 16 hours ago
0 DELTA 1 DEB
1 09570U 73086FX  26033.35265431 -.00000042  00000-0  11502-4 0  9998
2 09570 101.7305 338.7994 0067663 273.3853 215.7922 12.41292540361145
Epoch: 2026-02-02T08:27Z
TLE epoch observation values (Epoch: 2026-02-02T08:27:49.332Z)
Latitude
49.89643°
Longitude
-86.50232°
Altitude
1,552.204 km
Speed
7.076 km/s
True Right ascension
11h 32m 00s
True Declination
49° 44' 38"
Sunlit
Object was in full shadow at epoch
Visualization orbit readout
Latitude
Unknown
Longitude
Unknown
Altitude
Unknown
Speed
Unknown
Apparent Right ascension
Unknown
Apparent Declination
Unknown
Sunlit
N/A
Visualization observer readout
Local Sidereal Time
02:09:42
Azimuth
Unknown
Elevation
Unknown
Doppler factor
Unknown
Orbital elements
Apogee altitude
1,551.983 km
Perigee altitude
1,445.389 km
Semi-major axis
7,876.823 km
Eccentricity
0.00677
Inclination
101.7305°
RAAN
338.7994°
Arg. of periapsis
273.3853°
True anomaly
215.34183°
Mean anomaly
215.7922°
Eccentric anomaly
215.56671°
Mean motion
3.10468 °/min
Orbital period
115.95 mins
BSTAR
0.000011502
Loading maneuver chart data...
Computing Atmospheric mass density...
Loading historical data...
Loading historical data...
Loading historical data...
Loading historical data...
Loading historical data...
Loading historical data...
Loading historical data...

Documentation

Showing up to 5 results
|